Regional Weather Roundup
Issued by NWS

Home | Current Version | Previous Version | Text Only | Print | Product List | Glossary On
Versions: 1 2 3 4 5 6 7 8 9 10 11 12 13 14 15 16 17 18 19 20 21 22 23 24 25 26 27 28 29 30 31 32 33 34 35 36 37 38 39 40 41 42 43 44 45 46 47 48 49 50
000
ASUS43 KLMK 230302
RWRKY
KENTUCKY REGIONAL WEATHER ROUNDUP
NATIONAL WEATHER SERVICE LOUISVILLE KY
1100 PM EDT THU JUN 22 2017

NOTE "FAIR" INDICATES FEW OR NO CLOUDS BELOW 12,000 FEET
WITH NO SIGNIFICANT WEATHER AND/OR OBSTRUCTIONS TO VISIBILITY.

KYZ001>023-026-027-061>063-070>075-230400-
WESTERN AND SOUTH CENTRAL KENTUCKY

CITY           SKY/WX    TMP DP  RH WIND       PRES   REMARKS
PADUCAH        CLOUDY    81  73  76 S7        29.79R
HENDERSON      MOCLDY    75  74  96 SE7       29.82S
OWENSBORO      MOCLDY    75  74  96 SE10      29.84R
HOPKINSVILLE   CLOUDY    77  73  88 S9        29.84R
BOWLING GREEN  CLOUDY    77  74  90 S13       29.87S
GLASGOW        NOT AVBL
$$

KYZ024-025-028>034-038-045-046-053-230400-
NORTH CENTRAL KENTUCKY

CITY           SKY/WX    TMP DP  RH WIND       PRES   REMARKS
LOUISVILLE/SDF MOCLDY    74  72  93 S9        29.87R
LOUISVILLE/LOU MOCLDY    73  73 100 VRB3      29.88S
FORT KNOX      CLOUDY    72  72 100 SE5       29.86S
$$

KYZ035>037-039>044-047>052-055>060-089>105-230400-
NORTHEAST KENTUCKY

CITY           SKY/WX    TMP DP  RH WIND       PRES   REMARKS
LEXINGTON      MOCLDY    71  68  90 S9        29.93R
COVINGTON      LGT RAIN  70  69  97 S13       29.89S
FRANKFORT      CLOUDY    72  68  87 S5        29.90R
$$

KYZ054-064>069-076>088-106>120-230400-
SOUTHEAST KENTUCKY

CITY           SKY/WX    TMP DP  RH WIND       PRES   REMARKS
JACKSON        CLOUDY    69  67  93 VRB3      29.98S
LONDON         MOCLDY    71  67  87 S7        29.98R
SOMERSET       HVY RAIN  70  70 100 S3        29.97S
MIDDLESBORO    CLOUDY    70  70 100 CALM      30.02S
MONTICELLO     CLOUDY    74  71  91 E7        29.97R
$$





USA.gov is the U.S. government's official web portal to all federal, state and local government web resources and services.